Location: Angwan Shehu
(11.2514°N, 7.4613°E)
Time: 02:37:57
(UTC+00:00)

GPS 2-17 Rocket1 - Pass Details

Date: 14 November 2019
Orbit: 571 x 659 km, 20.3° (Epoch: 11 December)

Event Time Altitude Azimuth Distance (km) Brightness Sun altitude
Rises 18:06:43 0° 289° (WNW) 2,787 7.4 -15.7°
Reaches altitude 10° 18:09:00 10° 289° (WNW) 1,900 6.4 -16.3°
Maximum altitude 18:13:27 84° 17° (NNE) 602 2.9 -17.3°
Enters shadow 18:15:31 32° 104° (ESE) 1,035 3.7 -17.8°
